contact:dominique.lefevre@mio.osupytheas.fr, maurice.libes@osupytheas.fr, didier.mallarino@osupytheas.fr
Project:EMSO http://www.emso-fr.org/EMSO-France
Depth: 2436.0 m
Title:EMSO Ligure Ouest : Data MII capteur MICROCAT
DateTime_Computer,Latitude,Longitude,Temperature,Conductivity,Pressure,DateTime_Instrument
DateTime_Computer,Latitude,Longitude,degC,S m-1,dbar,DateTime_Instrument
2021-11-15T00:02:34Z,42.805,6.029,13.2993,4.60021,2470.32,2021-11-15T02:04:00Z
2021-11-15T00:05:37Z,42.805,6.029,13.2992,4.60027,2470.31,2021-11-15T02:07:03Z
2021-11-15T00:08:40Z,42.805,6.029,13.2992,4.60021,2470.297,2021-11-15T02:10:06Z
2021-11-15T00:11:44Z,42.805,6.029,13.2998,4.60021,2470.31,2021-11-15T02:13:09Z
2021-11-15T00:14:47Z,42.805,6.029,13.2991,4.60025,2470.334,2021-11-15T02:16:13Z
2021-11-15T00:17:50Z,42.805,6.029,13.2999,4.60022,2470.334,2021-11-15T02:19:16Z
2021-11-15T00:20:53Z,42.805,6.029,13.2997,4.60025,2470.32,2021-11-15T02:22:19Z
2021-11-15T00:23:56Z,42.805,6.029,13.2998,4.60028,2470.32,2021-11-15T02:25:22Z
2021-11-15T00:26:59Z,42.805,6.029,13.2995,4.60025,2470.297,2021-11-15T02:28:25Z
2021-11-15T00:30:02Z,42.805,6.029,13.2993,4.60026,2470.32,2021-11-15T02:31:28Z
2021-11-15T00:33:05Z,42.805,6.029,13.2993,4.60017,2470.334,2021-11-15T02:34:31Z
2021-11-15T00:36:09Z,42.805,6.029,13.2991,4.60019,2470.31,2021-11-15T02:37:34Z
2021-11-15T00:39:12Z,42.805,6.029,13.2992,4.60024,2470.297,2021-11-15T02:40:38Z
2021-11-15T00:42:15Z,42.805,6.029,13.2993,4.60016,2470.343,2021-11-15T02:43:41Z
2021-11-15T00:45:18Z,42.805,6.029,13.2996,4.60029,2470.32,2021-11-15T02:46:44Z
2021-11-15T00:48:21Z,42.805,6.029,13.2997,4.60019,2470.297,2021-11-15T02:49:47Z
2021-11-15T00:51:24Z,42.805,6.029,13.2993,4.60019,2470.32,2021-11-15T02:52:50Z
2021-11-15T00:54:27Z,42.805,6.029,13.2993,4.60017,2470.343,2021-11-15T02:55:53Z
2021-11-15T00:57:30Z,42.805,6.029,13.2990,4.60016,2470.32,2021-11-15T02:58:56Z
2021-11-15T01:00:34Z,42.805,6.029,13.2998,4.60025,2470.31,2021-11-15T03:01:59Z
2021-11-15T01:03:37Z,42.805,6.029,13.2996,4.60026,2470.32,2021-11-15T03:05:03Z
2021-11-15T01:06:40Z,42.805,6.029,13.2996,4.60021,2470.32,2021-11-15T03:08:06Z
2021-11-15T01:09:43Z,42.805,6.029,13.2991,4.60018,2470.32,2021-11-15T03:11:09Z
2021-11-15T01:12:46Z,42.805,6.029,13.2990,4.60020,2470.32,2021-11-15T03:14:12Z
2021-11-15T01:15:49Z,42.805,6.029,13.2994,4.60019,2470.32,2021-11-15T03:17:15Z
2021-11-15T01:18:52Z,42.805,6.029,13.2991,4.60022,2470.297,2021-11-15T03:20:18Z
2021-11-15T01:21:55Z,42.805,6.029,13.2998,4.60023,2470.297,2021-11-15T03:23:21Z
2021-11-15T01:24:58Z,42.805,6.029,13.2992,4.60033,2470.343,2021-11-15T03:26:24Z
2021-11-15T01:28:02Z,42.805,6.029,13.2996,4.60032,2470.366,2021-11-15T03:29:28Z
2021-11-15T01:31:05Z,42.805,6.029,13.2995,4.60024,2470.334,2021-11-15T03:32:31Z
2021-11-15T01:34:08Z,42.805,6.029,13.2995,4.60019,2470.357,2021-11-15T03:35:34Z
2021-11-15T01:37:11Z,42.805,6.029,13.2993,4.60018,2470.334,2021-11-15T03:38:37Z
2021-11-15T01:40:14Z,42.805,6.029,13.2996,4.60020,2470.32,2021-11-15T03:41:40Z
2021-11-15T01:43:17Z,42.805,6.029,13.2996,4.60022,2470.357,2021-11-15T03:44:43Z
2021-11-15T01:46:20Z,42.805,6.029,13.2996,4.60019,2470.334,2021-11-15T03:47:46Z
2021-11-15T01:49:23Z,42.805,6.029,13.2998,4.60025,2470.38,2021-11-15T03:50:49Z
2021-11-15T01:52:27Z,42.805,6.029,13.2992,4.60022,2470.366,2021-11-15T03:53:53Z
2021-11-15T01:55:30Z,42.805,6.029,13.2993,4.60017,2470.38,2021-11-15T03:56:56Z
2021-11-15T01:58:33Z,42.805,6.029,13.2995,4.60033,2470.343,2021-11-15T03:59:59Z
2021-11-15T02:01:36Z,42.805,6.029,13.2991,4.60017,2470.38,2021-11-15T04:03:02Z
2021-11-15T02:04:39Z,42.805,6.029,13.2998,4.60025,2470.404,2021-11-15T04:06:05Z
2021-11-15T02:07:42Z,42.805,6.029,13.2988,4.60015,2470.39,2021-11-15T04:09:08Z
2021-11-15T02:10:45Z,42.805,6.029,13.2995,4.60019,2470.366,2021-11-15T04:12:11Z
2021-11-15T02:13:48Z,42.805,6.029,13.2991,4.60015,2470.38,2021-11-15T04:15:14Z
2021-11-15T02:16:52Z,42.805,6.029,13.2989,4.60014,2470.38,2021-11-15T04:18:17Z
2021-11-15T02:19:55Z,42.805,6.029,13.2994,4.60026,2470.38,2021-11-15T04:21:21Z
2021-11-15T02:22:58Z,42.805,6.029,13.2996,4.60024,2470.343,2021-11-15T04:24:24Z
2021-11-15T02:26:01Z,42.805,6.029,13.2995,4.60019,2470.366,2021-11-15T04:27:27Z
2021-11-15T02:29:04Z,42.805,6.029,13.2990,4.60014,2470.366,2021-11-15T04:30:30Z
2021-11-15T02:32:07Z,42.805,6.029,13.2995,4.60021,2470.366,2021-11-15T04:33:33Z
2021-11-15T02:35:10Z,42.805,6.029,13.2993,4.60017,2470.404,2021-11-15T04:36:36Z
2021-11-15T02:38:13Z,42.805,6.029,13.2991,4.60014,2470.427,2021-11-15T04:39:39Z
2021-11-15T02:41:17Z,42.805,6.029,13.2994,4.60019,2470.366,2021-11-15T04:42:42Z
2021-11-15T02:44:20Z,42.805,6.029,13.2997,4.60029,2470.404,2021-11-15T04:45:46Z
2021-11-15T02:47:23Z,42.805,6.029,13.2995,4.60026,2470.366,2021-11-15T04:48:49Z
2021-11-15T02:50:26Z,42.805,6.029,13.2992,4.60032,2470.404,2021-11-15T04:51:52Z
2021-11-15T02:53:29Z,42.805,6.029,13.2996,4.60033,2470.39,2021-11-15T04:54:55Z
2021-11-15T02:56:32Z,42.805,6.029,13.3004,4.60036,2470.39,2021-11-15T04:57:58Z
2021-11-15T02:59:35Z,42.805,6.029,13.3000,4.60031,2470.39,2021-11-15T05:01:01Z
2021-11-15T03:02:38Z,42.805,6.029,13.3000,4.60049,2470.413,2021-11-15T05:04:04Z
2021-11-15T03:05:41Z,42.805,6.029,13.2994,4.60031,2470.39,2021-11-15T05:07:07Z
2021-11-15T03:08:45Z,42.805,6.029,13.2998,4.60027,2470.404,2021-11-15T05:10:11Z
2021-11-15T03:11:48Z,42.805,6.029,13.2995,4.60019,2470.404,2021-11-15T05:13:14Z
2021-11-15T03:14:51Z,42.805,6.029,13.2995,4.60028,2470.427,2021-11-15T05:16:17Z
2021-11-15T03:17:54Z,42.805,6.029,13.2995,4.60024,2470.413,2021-11-15T05:19:20Z
2021-11-15T03:20:57Z,42.805,6.029,13.2997,4.60019,2470.413,2021-11-15T05:22:23Z
2021-11-15T03:24:00Z,42.805,6.029,13.2994,4.60017,2470.39,2021-11-15T05:25:26Z
2021-11-15T03:27:03Z,42.805,6.029,13.2995,4.60024,2470.39,2021-11-15T05:28:29Z
2021-11-15T03:30:06Z,42.805,6.029,13.2994,4.60017,2470.427,2021-11-15T05:31:32Z
2021-11-15T03:33:10Z,42.805,6.029,13.3001,4.60029,2470.413,2021-11-15T05:34:36Z
2021-11-15T03:36:13Z,42.805,6.029,13.2994,4.60021,2470.413,2021-11-15T05:37:39Z
2021-11-15T03:39:16Z,42.805,6.029,13.2993,4.60025,2470.39,2021-11-15T05:40:42Z
2021-11-15T03:42:19Z,42.805,6.029,13.2993,4.60027,2470.427,2021-11-15T05:43:45Z
2021-11-15T03:45:22Z,42.805,6.029,13.2993,4.60020,2470.404,2021-11-15T05:46:48Z
2021-11-15T03:48:25Z,42.805,6.029,13.2994,4.60024,2470.404,2021-11-15T05:49:51Z
2021-11-15T03:51:28Z,42.805,6.029,13.2996,4.60026,2470.413,2021-11-15T05:52:54Z
2021-11-15T03:54:31Z,42.805,6.029,13.2996,4.60026,2470.366,2021-11-15T05:55:57Z
2021-11-15T03:57:35Z,42.805,6.029,13.2992,4.60016,2470.413,2021-11-15T05:59:01Z
2021-11-15T04:00:38Z,42.805,6.029,13.2991,4.60023,2470.45,2021-11-15T06:02:04Z
2021-11-15T04:03:41Z,42.805,6.029,13.2990,4.60011,2470.437,2021-11-15T06:05:07Z
2021-11-15T04:06:44Z,42.805,6.029,13.2993,4.60020,2470.427,2021-11-15T06:08:10Z
2021-11-15T04:09:47Z,42.805,6.029,13.2993,4.60023,2470.437,2021-11-15T06:11:13Z
2021-11-15T04:12:50Z,42.805,6.029,13.2994,4.60016,2470.404,2021-11-15T06:14:16Z
2021-11-15T04:15:53Z,42.805,6.029,13.2994,4.60023,2470.39,2021-11-15T06:17:19Z
2021-11-15T04:18:56Z,42.805,6.029,13.2996,4.60022,2470.45,2021-11-15T06:20:22Z
2021-11-15T04:22:00Z,42.805,6.029,13.2993,4.60025,2470.413,2021-11-15T06:23:26Z
2021-11-15T04:25:03Z,42.805,6.029,13.2997,4.60021,2470.413,2021-11-15T06:26:29Z
2021-11-15T04:28:06Z,42.805,6.029,13.2991,4.60021,2470.427,2021-11-15T06:29:32Z
2021-11-15T04:31:09Z,42.805,6.029,13.2990,4.60016,2470.413,2021-11-15T06:32:35Z
2021-11-15T04:34:12Z,42.805,6.029,13.2991,4.60029,2470.437,2021-11-15T06:35:38Z
2021-11-15T04:37:15Z,42.805,6.029,13.2991,4.60020,2470.39,2021-11-15T06:38:41Z
2021-11-15T04:40:18Z,42.805,6.029,13.2993,4.60020,2470.413,2021-11-15T06:41:44Z
2021-11-15T04:43:21Z,42.805,6.029,13.2995,4.60031,2470.427,2021-11-15T06:44:47Z
2021-11-15T04:46:25Z,42.805,6.029,13.2991,4.60016,2470.413,2021-11-15T06:47:50Z
2021-11-15T04:49:28Z,42.805,6.029,13.2990,4.60016,2470.39,2021-11-15T06:50:54Z
2021-11-15T04:52:31Z,42.805,6.029,13.2995,4.60023,2470.39,2021-11-15T06:53:57Z
2021-11-15T04:55:34Z,42.805,6.029,13.2998,4.60026,2470.404,2021-11-15T06:57:00Z
2021-11-15T04:58:37Z,42.805,6.029,13.2995,4.60026,2470.427,2021-11-15T07:00:03Z
2021-11-15T05:01:40Z,42.805,6.029,13.2994,4.60023,2470.413,2021-11-15T07:03:06Z
2021-11-15T05:04:43Z,42.805,6.029,13.2992,4.60019,2470.427,2021-11-15T07:06:09Z
2021-11-15T05:07:46Z,42.805,6.029,13.2993,4.60017,2470.413,2021-11-15T07:09:12Z
2021-11-15T05:10:50Z,42.805,6.029,13.2997,4.60019,2470.413,2021-11-15T07:12:15Z
2021-11-15T05:13:53Z,42.805,6.029,13.2993,4.60017,2470.427,2021-11-15T07:15:19Z
2021-11-15T05:16:56Z,42.805,6.029,13.2991,4.60016,2470.413,2021-11-15T07:18:22Z
2021-11-15T05:19:59Z,42.805,6.029,13.2993,4.60019,2470.437,2021-11-15T07:21:25Z
2021-11-15T05:23:02Z,42.805,6.029,13.2993,4.60035,2470.413,2021-11-15T07:24:28Z
2021-11-15T05:26:05Z,42.805,6.029,13.2993,4.60032,2470.413,2021-11-15T07:27:31Z
2021-11-15T05:29:08Z,42.805,6.029,13.2995,4.60019,2470.437,2021-11-15T07:30:34Z
2021-11-15T05:32:11Z,42.805,6.029,13.2998,4.60021,2470.437,2021-11-15T07:33:37Z
2021-11-15T05:35:14Z,42.805,6.029,13.2996,4.60019,2470.437,2021-11-15T07:36:40Z
2021-11-15T05:38:18Z,42.805,6.029,13.2993,4.60024,2470.427,2021-11-15T07:39:44Z
2021-11-15T05:41:21Z,42.805,6.029,13.2996,4.60028,2470.427,2021-11-15T07:42:47Z
2021-11-15T05:44:24Z,42.805,6.029,13.2996,4.60021,2470.427,2021-11-15T07:45:50Z
2021-11-15T05:47:27Z,42.805,6.029,13.2999,4.60024,2470.39,2021-11-15T07:48:53Z
2021-11-15T05:50:30Z,42.805,6.029,13.2996,4.60031,2470.437,2021-11-15T07:51:56Z
2021-11-15T05:53:33Z,42.805,6.029,13.2996,4.60019,2470.427,2021-11-15T07:54:59Z
2021-11-15T05:56:36Z,42.805,6.029,13.2993,4.60019,2470.427,2021-11-15T07:58:02Z
2021-11-15T05:59:39Z,42.805,6.029,13.2992,4.60016,2470.404,2021-11-15T08:01:05Z
2021-11-15T06:02:43Z,42.805,6.029,13.2995,4.60019,2470.45,2021-11-15T08:04:09Z
2021-11-15T06:05:46Z,42.805,6.029,13.2992,4.60017,2470.404,2021-11-15T08:07:12Z
2021-11-15T06:08:49Z,42.805,6.029,13.2994,4.60018,2470.427,2021-11-15T08:10:15Z
2021-11-15T06:11:52Z,42.805,6.029,13.3000,4.60022,2470.427,2021-11-15T08:13:18Z
2021-11-15T06:14:55Z,42.805,6.029,13.2996,4.60030,2470.39,2021-11-15T08:16:21Z
2021-11-15T06:17:58Z,42.805,6.029,13.2997,4.60027,2470.413,2021-11-15T08:19:24Z
2021-11-15T06:21:01Z,42.805,6.029,13.2999,4.60021,2470.39,2021-11-15T08:22:27Z
2021-11-15T06:24:04Z,42.805,6.029,13.2993,4.60015,2470.404,2021-11-15T08:25:30Z
2021-11-15T06:27:08Z,42.805,6.029,13.2994,4.60019,2470.404,2021-11-15T08:28:34Z
2021-11-15T06:30:11Z,42.805,6.029,13.2996,4.60022,2470.413,2021-11-15T08:31:37Z
2021-11-15T06:33:14Z,42.805,6.029,13.2993,4.60016,2470.413,2021-11-15T08:34:40Z
2021-11-15T06:36:17Z,42.805,6.029,13.2990,4.60024,2470.437,2021-11-15T08:37:43Z
2021-11-15T06:39:20Z,42.805,6.029,13.2990,4.60025,2470.404,2021-11-15T08:40:46Z
2021-11-15T06:42:23Z,42.805,6.029,13.2992,4.60021,2470.413,2021-11-15T08:43:49Z
2021-11-15T06:45:26Z,42.805,6.029,13.2990,4.60019,2470.427,2021-11-15T08:46:52Z
2021-11-15T06:48:29Z,42.805,6.029,13.2993,4.60021,2470.404,2021-11-15T08:49:55Z
2021-11-15T06:51:33Z,42.805,6.029,13.2996,4.60026,2470.404,2021-11-15T08:52:59Z
2021-11-15T06:54:36Z,42.805,6.029,13.2996,4.60021,2470.427,2021-11-15T08:56:02Z
2021-11-15T06:57:39Z,42.805,6.029,13.2991,4.60016,2470.404,2021-11-15T08:59:05Z
2021-11-15T07:00:42Z,42.805,6.029,13.2996,4.60017,2470.39,2021-11-15T09:02:08Z
2021-11-15T07:03:45Z,42.805,6.029,13.2996,4.60019,2470.413,2021-11-15T09:05:11Z
2021-11-15T07:06:48Z,42.805,6.029,13.3002,4.60021,2470.413,2021-11-15T09:08:14Z
2021-11-15T07:09:51Z,42.805,6.029,13.2990,4.60017,2470.413,2021-11-15T09:11:17Z
2021-11-15T07:12:54Z,42.805,6.029,13.2990,4.60017,2470.39,2021-11-15T09:14:20Z
2021-11-15T07:15:58Z,42.805,6.029,13.2993,4.60023,2470.39,2021-11-15T09:17:24Z
2021-11-15T07:19:01Z,42.805,6.029,13.2998,4.60023,2470.427,2021-11-15T09:20:27Z
2021-11-15T07:22:04Z,42.805,6.029,13.2998,4.60024,2470.39,2021-11-15T09:23:30Z
2021-11-15T07:25:07Z,42.805,6.029,13.2994,4.60016,2470.39,2021-11-15T09:26:33Z
2021-11-15T07:28:10Z,42.805,6.029,13.2996,4.60017,2470.427,2021-11-15T09:29:36Z
2021-11-15T07:31:13Z,42.805,6.029,13.2992,4.60022,2470.427,2021-11-15T09:32:39Z
2021-11-15T07:34:16Z,42.805,6.029,13.2994,4.60036,2470.413,2021-11-15T09:35:42Z
2021-11-15T07:37:19Z,42.805,6.029,13.2997,4.60021,2470.366,2021-11-15T09:38:45Z
2021-11-15T07:40:23Z,42.805,6.029,13.2996,4.60021,2470.39,2021-11-15T09:41:49Z
2021-11-15T07:43:26Z,42.805,6.029,13.3000,4.60029,2470.39,2021-11-15T09:44:52Z
2021-11-15T07:46:29Z,42.805,6.029,13.2992,4.60025,2470.39,2021-11-15T09:47:55Z
2021-11-15T07:49:32Z,42.805,6.029,13.2998,4.60026,2470.404,2021-11-15T09:50:58Z
2021-11-15T07:52:35Z,42.805,6.029,13.2999,4.60027,2470.39,2021-11-15T09:54:01Z
2021-11-15T07:55:38Z,42.805,6.029,13.2993,4.60018,2470.427,2021-11-15T09:57:04Z
2021-11-15T07:58:41Z,42.805,6.029,13.2999,4.60022,2470.38,2021-11-15T10:00:07Z
2021-11-15T08:01:44Z,42.805,6.029,13.2995,4.60024,2470.404,2021-11-15T10:03:10Z
2021-11-15T08:04:48Z,42.805,6.029,13.3002,4.60031,2470.39,2021-11-15T10:06:14Z
2021-11-15T08:07:51Z,42.805,6.029,13.2995,4.60026,2470.404,2021-11-15T10:09:17Z
2021-11-15T08:10:54Z,42.805,6.029,13.2998,4.60025,2470.404,2021-11-15T10:12:20Z
2021-11-15T08:13:57Z,42.805,6.029,13.2990,4.60019,2470.353,2021-11-15T10:15:23Z
2021-11-15T08:17:00Z,42.805,6.029,13.2998,4.60026,2470.413,2021-11-15T10:18:26Z
2021-11-15T08:20:03Z,42.805,6.029,13.2997,4.60027,2470.39,2021-11-15T10:21:29Z
2021-11-15T08:23:06Z,42.805,6.029,13.2991,4.60030,2470.38,2021-11-15T10:24:32Z
2021-11-15T08:26:09Z,42.805,6.029,13.2997,4.60029,2470.366,2021-11-15T10:27:35Z
2021-11-15T08:29:13Z,42.805,6.029,13.2998,4.60029,2470.38,2021-11-15T10:30:39Z
2021-11-15T08:32:16Z,42.805,6.029,13.2998,4.60021,2470.404,2021-11-15T10:33:42Z
2021-11-15T08:35:19Z,42.805,6.029,13.2990,4.60021,2470.39,2021-11-15T10:36:45Z
2021-11-15T08:38:22Z,42.805,6.029,13.2993,4.60024,2470.404,2021-11-15T10:39:48Z
2021-11-15T08:41:25Z,42.805,6.029,13.2995,4.60021,2470.366,2021-11-15T10:42:51Z
2021-11-15T08:44:28Z,42.805,6.029,13.2996,4.60029,2470.404,2021-11-15T10:45:54Z
2021-11-15T08:47:31Z,42.805,6.029,13.2994,4.60027,2470.404,2021-11-15T10:48:57Z
2021-11-15T08:50:35Z,42.805,6.029,13.2993,4.60022,2470.366,2021-11-15T10:52:01Z
2021-11-15T08:53:38Z,42.805,6.029,13.2998,4.60031,2470.404,2021-11-15T10:55:04Z
2021-11-15T08:56:41Z,42.805,6.029,13.2996,4.60023,2470.366,2021-11-15T10:58:07Z
2021-11-15T08:59:44Z,42.805,6.029,13.2996,4.60028,2470.357,2021-11-15T11:01:10Z
2021-11-15T09:02:47Z,42.805,6.029,13.2993,4.60028,2470.404,2021-11-15T11:04:13Z
2021-11-15T09:05:50Z,42.805,6.029,13.2994,4.60021,2470.366,2021-11-15T11:07:16Z
2021-11-15T09:08:53Z,42.805,6.029,13.2992,4.60019,2470.404,2021-11-15T11:10:19Z
2021-11-15T09:11:56Z,42.805,6.029,13.2992,4.60017,2470.39,2021-11-15T11:13:22Z
2021-11-15T09:15:00Z,42.805,6.029,13.2987,4.60019,2470.366,2021-11-15T11:16:26Z
2021-11-15T09:18:03Z,42.805,6.029,13.2991,4.60024,2470.343,2021-11-15T11:19:29Z
2021-11-15T09:21:06Z,42.805,6.029,13.2996,4.60028,2470.343,2021-11-15T11:22:32Z
2021-11-15T09:24:09Z,42.805,6.029,13.2995,4.60022,2470.343,2021-11-15T11:25:35Z
2021-11-15T09:27:12Z,42.805,6.029,13.2993,4.60026,2470.343,2021-11-15T11:28:38Z
2021-11-15T09:30:15Z,42.805,6.029,13.2996,4.60023,2470.39,2021-11-15T11:31:41Z
2021-11-15T09:33:18Z,42.805,6.029,13.2996,4.60021,2470.39,2021-11-15T11:34:44Z
2021-11-15T09:36:21Z,42.805,6.029,13.2996,4.60021,2470.39,2021-11-15T11:37:47Z
2021-11-15T09:39:25Z,42.805,6.029,13.2990,4.60024,2470.343,2021-11-15T11:40:51Z
2021-11-15T09:42:28Z,42.805,6.029,13.2994,4.60031,2470.357,2021-11-15T11:43:54Z
2021-11-15T09:45:31Z,42.805,6.029,13.2994,4.60021,2470.343,2021-11-15T11:46:57Z
2021-11-15T09:48:34Z,42.805,6.029,13.2991,4.60020,2470.357,2021-11-15T11:50:00Z
2021-11-15T09:51:37Z,42.805,6.029,13.2997,4.60026,2470.357,2021-11-15T11:53:03Z
2021-11-15T09:54:40Z,42.805,6.029,13.2993,4.60024,2470.343,2021-11-15T11:56:06Z
2021-11-15T09:57:43Z,42.805,6.029,13.3002,4.60026,2470.366,2021-11-15T11:59:09Z
2021-11-15T10:00:46Z,42.805,6.029,13.2991,4.60032,2470.343,2021-11-15T12:02:12Z
2021-11-15T10:03:50Z,42.805,6.029,13.2995,4.60026,2470.334,2021-11-15T12:05:16Z
2021-11-15T10:06:53Z,42.805,6.029,13.2994,4.60026,2470.366,2021-11-15T12:08:19Z
2021-11-15T10:09:56Z,42.805,6.029,13.2995,4.60024,2470.357,2021-11-15T12:11:22Z
2021-11-15T10:12:59Z,42.805,6.029,13.2996,4.60023,2470.38,2021-11-15T12:14:25Z
2021-11-15T10:16:02Z,42.805,6.029,13.2993,4.60024,2470.366,2021-11-15T12:17:28Z
2021-11-15T10:19:05Z,42.805,6.029,13.3000,4.60026,2470.38,2021-11-15T12:20:31Z
2021-11-15T10:22:08Z,42.805,6.029,13.2996,4.60033,2470.334,2021-11-15T12:23:34Z
2021-11-15T10:25:12Z,42.805,6.029,13.2994,4.60031,2470.366,2021-11-15T12:26:38Z
2021-11-15T10:28:15Z,42.805,6.029,13.2990,4.60028,2470.334,2021-11-15T12:29:41Z
2021-11-15T10:31:18Z,42.805,6.029,13.2998,4.60036,2470.357,2021-11-15T12:32:44Z
2021-11-15T10:34:21Z,42.805,6.029,13.2997,4.60039,2470.357,2021-11-15T12:35:47Z
2021-11-15T10:37:24Z,42.805,6.029,13.2993,4.60026,2470.32,2021-11-15T12:38:50Z
2021-11-15T10:40:27Z,42.805,6.029,13.2994,4.60025,2470.343,2021-11-15T12:41:53Z
2021-11-15T10:43:30Z,42.805,6.029,13.2995,4.60018,2470.334,2021-11-15T12:44:56Z
2021-11-15T10:46:33Z,42.805,6.029,13.2996,4.60026,2470.343,2021-11-15T12:47:59Z
2021-11-15T10:49:37Z,42.805,6.029,13.2999,4.60031,2470.366,2021-11-15T12:51:03Z
2021-11-15T10:52:40Z,42.805,6.029,13.2998,4.60031,2470.343,2021-11-15T12:54:06Z
2021-11-15T10:55:43Z,42.805,6.029,13.2990,4.60021,2470.32,2021-11-15T12:57:09Z
2021-11-15T10:58:46Z,42.805,6.029,13.2998,4.60029,2470.343,2021-11-15T13:00:12Z
2021-11-15T11:01:49Z,42.805,6.029,13.2998,4.60036,2470.343,2021-11-15T13:03:15Z
2021-11-15T11:04:52Z,42.805,6.029,13.2994,4.60026,2470.32,2021-11-15T13:06:18Z
2021-11-15T11:07:55Z,42.805,6.029,13.2992,4.60020,2470.343,2021-11-15T13:09:21Z
2021-11-15T11:10:58Z,42.805,6.029,13.2996,4.60025,2470.32,2021-11-15T13:12:24Z
2021-11-15T11:14:02Z,42.805,6.029,13.2993,4.60020,2470.32,2021-11-15T13:15:28Z
2021-11-15T11:17:05Z,42.805,6.029,13.2994,4.60019,2470.357,2021-11-15T13:18:31Z
2021-11-15T11:20:08Z,42.805,6.029,13.2998,4.60021,2470.343,2021-11-15T13:21:34Z
2021-11-15T11:23:11Z,42.805,6.029,13.2994,4.60024,2470.32,2021-11-15T13:24:37Z
2021-11-15T11:26:14Z,42.805,6.029,13.2996,4.60020,2470.357,2021-11-15T13:27:40Z
2021-11-15T11:29:17Z,42.805,6.029,13.2993,4.60036,2470.38,2021-11-15T13:30:43Z
2021-11-15T11:32:20Z,42.805,6.029,13.2997,4.60034,2470.343,2021-11-15T13:33:46Z
2021-11-15T11:35:23Z,42.805,6.029,13.2993,4.60022,2470.32,2021-11-15T13:36:49Z
2021-11-15T11:38:27Z,42.805,6.029,13.2995,4.60030,2470.343,2021-11-15T13:39:53Z
2021-11-15T11:41:30Z,42.805,6.029,13.2993,4.60024,2470.334,2021-11-15T13:42:56Z
2021-11-15T11:44:33Z,42.805,6.029,13.2997,4.60024,2470.343,2021-11-15T13:45:59Z
2021-11-15T11:47:36Z,42.805,6.029,13.2994,4.60016,2470.357,2021-11-15T13:49:02Z
2021-11-15T11:50:39Z,42.805,6.029,13.2992,4.60020,2470.32,2021-11-15T13:52:05Z
2021-11-15T11:53:42Z,42.805,6.029,13.2993,4.60022,2470.357,2021-11-15T13:55:08Z
2021-11-15T11:56:45Z,42.805,6.029,13.2993,4.60024,2470.343,2021-11-15T13:58:11Z
2021-11-15T11:59:49Z,42.805,6.029,13.2998,4.60030,2470.334,2021-11-15T14:01:15Z
2021-11-15T12:02:52Z,42.805,6.029,13.2994,4.60028,2470.343,2021-11-15T14:04:18Z
2021-11-15T12:05:55Z,42.805,6.029,13.2995,4.60019,2470.343,2021-11-15T14:07:21Z
2021-11-15T12:08:58Z,42.805,6.029,13.2997,4.60029,2470.343,2021-11-15T14:10:24Z
2021-11-15T12:12:01Z,42.805,6.029,13.2998,4.60026,2470.32,2021-11-15T14:13:27Z
2021-11-15T12:15:04Z,42.805,6.029,13.3000,4.60026,2470.357,2021-11-15T14:16:30Z
2021-11-15T12:18:07Z,42.805,6.029,13.2993,4.60021,2470.32,2021-11-15T14:19:33Z
2021-11-15T12:21:10Z,42.805,6.029,13.2997,4.60025,2470.366,2021-11-15T14:22:36Z
2021-11-15T12:24:14Z,42.805,6.029,13.2995,4.60028,2470.38,2021-11-15T14:25:40Z
2021-11-15T12:27:17Z,42.805,6.029,13.2997,4.60021,2470.343,2021-11-15T14:28:43Z
2021-11-15T12:30:20Z,42.805,6.029,13.2999,4.60030,2470.31,2021-11-15T14:31:46Z
2021-11-15T12:33:23Z,42.805,6.029,13.2993,4.60019,2470.366,2021-11-15T14:34:49Z
2021-11-15T12:36:26Z,42.805,6.029,13.2998,4.60026,2470.366,2021-11-15T14:37:52Z
2021-11-15T12:39:29Z,42.805,6.029,13.2997,4.60026,2470.343,2021-11-15T14:40:55Z
2021-11-15T12:42:32Z,42.805,6.029,13.2995,4.60026,2470.38,2021-11-15T14:43:58Z
2021-11-15T12:45:35Z,42.805,6.029,13.2993,4.60038,2470.38,2021-11-15T14:47:01Z
2021-11-15T12:48:39Z,42.805,6.029,13.2996,4.60021,2470.343,2021-11-15T14:50:05Z
2021-11-15T12:51:42Z,42.805,6.029,13.2996,4.60021,2470.343,2021-11-15T14:53:08Z
2021-11-15T12:54:45Z,42.805,6.029,13.2993,4.60024,2470.343,2021-11-15T14:56:11Z
2021-11-15T12:57:48Z,42.805,6.029,13.2996,4.60026,2470.366,2021-11-15T14:59:14Z
2021-11-15T13:00:51Z,42.805,6.029,13.2992,4.60026,2470.366,2021-11-15T15:02:17Z
2021-11-15T13:03:54Z,42.805,6.029,13.2990,4.60026,2470.39,2021-11-15T15:05:20Z
2021-11-15T13:06:57Z,42.805,6.029,13.2995,4.60022,2470.404,2021-11-15T15:08:23Z
2021-11-15T13:10:00Z,42.805,6.029,13.2998,4.60024,2470.38,2021-11-15T15:11:26Z
2021-11-15T13:13:04Z,42.805,6.029,13.2993,4.60024,2470.38,2021-11-15T15:14:30Z
2021-11-15T13:16:07Z,42.805,6.029,13.2993,4.60027,2470.39,2021-11-15T15:17:33Z
2021-11-15T13:19:10Z,42.805,6.029,13.2995,4.60023,2470.404,2021-11-15T15:20:36Z
2021-11-15T13:22:13Z,42.805,6.029,13.2991,4.60020,2470.404,2021-11-15T15:23:39Z
2021-11-15T13:25:16Z,42.805,6.029,13.2998,4.60031,2470.39,2021-11-15T15:26:42Z
2021-11-15T13:28:19Z,42.805,6.029,13.2998,4.60021,2470.39,2021-11-15T15:29:45Z
2021-11-15T13:31:22Z,42.805,6.029,13.2995,4.60021,2470.404,2021-11-15T15:32:48Z
2021-11-15T13:34:26Z,42.805,6.029,13.2998,4.60021,2470.366,2021-11-15T15:35:52Z
2021-11-15T13:37:29Z,42.805,6.029,13.2995,4.60017,2470.404,2021-11-15T15:38:55Z
2021-11-15T13:40:32Z,42.805,6.029,13.2993,4.60019,2470.427,2021-11-15T15:41:58Z
2021-11-15T13:43:35Z,42.805,6.029,13.2992,4.60017,2470.413,2021-11-15T15:45:01Z
2021-11-15T13:46:38Z,42.805,6.029,13.2996,4.60017,2470.437,2021-11-15T15:48:04Z
2021-11-15T13:49:41Z,42.805,6.029,13.2998,4.60020,2470.437,2021-11-15T15:51:07Z
2021-11-15T13:52:44Z,42.805,6.029,13.2997,4.60024,2470.437,2021-11-15T15:54:10Z
2021-11-15T13:55:47Z,42.805,6.029,13.2995,4.60021,2470.427,2021-11-15T15:57:13Z
2021-11-15T13:58:51Z,42.805,6.029,13.2998,4.60029,2470.474,2021-11-15T16:00:17Z
2021-11-15T14:01:54Z,42.805,6.029,13.2994,4.60039,2470.427,2021-11-15T16:03:20Z
2021-11-15T14:04:57Z,42.805,6.029,13.2997,4.60029,2470.39,2021-11-15T16:06:23Z
2021-11-15T14:08:00Z,42.805,6.029,13.2992,4.60021,2470.427,2021-11-15T16:09:26Z
2021-11-15T14:11:03Z,42.805,6.029,13.2998,4.60022,2470.413,2021-11-15T16:12:29Z
2021-11-15T14:14:06Z,42.805,6.029,13.2996,4.60027,2470.45,2021-11-15T16:15:32Z
2021-11-15T14:17:09Z,42.805,6.029,13.2997,4.60025,2470.437,2021-11-15T16:18:35Z
2021-11-15T14:20:12Z,42.805,6.029,13.2997,4.60021,2470.437,2021-11-15T16:21:38Z
2021-11-15T14:23:16Z,42.805,6.029,13.2997,4.60022,2470.413,2021-11-15T16:24:42Z
2021-11-15T14:26:19Z,42.805,6.029,13.3000,4.60032,2470.437,2021-11-15T16:27:45Z
2021-11-15T14:29:22Z,42.805,6.029,13.2996,4.60028,2470.437,2021-11-15T16:30:48Z
2021-11-15T14:32:25Z,42.805,6.029,13.2996,4.60029,2470.474,2021-11-15T16:33:51Z
2021-11-15T14:35:28Z,42.805,6.029,13.2995,4.60029,2470.437,2021-11-15T16:36:54Z
2021-11-15T14:38:31Z,42.805,6.029,13.2996,4.60033,2470.46,2021-11-15T16:39:57Z
2021-11-15T14:41:34Z,42.805,6.029,13.3003,4.60026,2470.483,2021-11-15T16:43:00Z
2021-11-15T14:44:37Z,42.805,6.029,13.2996,4.60033,2470.46,2021-11-15T16:46:03Z
2021-11-15T14:47:41Z,42.805,6.029,13.2998,4.60034,2470.46,2021-11-15T16:49:07Z
2021-11-15T14:50:44Z,42.805,6.029,13.2999,4.60031,2470.474,2021-11-15T16:52:10Z
2021-11-15T14:53:47Z,42.805,6.029,13.2995,4.60022,2470.46,2021-11-15T16:55:13Z
2021-11-15T14:56:50Z,42.805,6.029,13.2996,4.60028,2470.474,2021-11-15T16:58:16Z
2021-11-15T14:59:53Z,42.805,6.029,13.3000,4.60023,2470.47,2021-11-15T17:01:19Z
2021-11-15T15:02:56Z,42.805,6.029,13.2994,4.60039,2470.483,2021-11-15T17:04:22Z